TimeCST,TemperatureF,Dew PointF,Humidity,Sea Level PressureIn,VisibilityMPH,Wind Direction,Wind SpeedMPH,Gust SpeedMPH,PrecipitationIn,Events,Conditions,WindDirDegrees,DateUTC
12:53 AM,28.9,25.0,85,30.03,8.0,SSE,5.8,-,N/A,,Overcast,150,2012-12-28 06:53:00
1:53 AM,28.9,25.0,85,30.02,7.0,SE,5.8,-,N/A,,Overcast,140,2012-12-28 07:53:00
2:40 AM,30.2,24.8,80,29.99,7.0,East,5.8,-,N/A,,Overcast,100,2012-12-28 08:40:00
2:53 AM,30.0,26.1,85,30.01,7.0,East,4.6,-,N/A,,Overcast,100,2012-12-28 08:53:00
3:13 AM,30.2,24.8,80,30.00,7.0,Calm,Calm,-,N/A,,Overcast,0,2012-12-28 09:13:00
3:53 AM,30.0,26.1,85,30.02,7.0,Calm,Calm,-,N/A,,Overcast,0,2012-12-28 09:53:00
4:21 AM,30.2,26.6,86,29.99,7.0,ESE,4.6,-,N/A,,Overcast,110,2012-12-28 10:21:00
4:53 AM,30.9,27.0,85,30.01,7.0,ESE,4.6,-,N/A,,Overcast,110,2012-12-28 10:53:00
5:02 AM,30.2,26.6,86,29.99,7.0,ESE,3.5,-,N/A,,Overcast,120,2012-12-28 11:02:00
5:53 AM,30.9,27.0,85,30.00,6.0,ESE,3.5,-,N/A,,Overcast,120,2012-12-28 11:53:00
6:53 AM,30.9,28.0,89,29.99,6.0,East,4.6,-,N/A,,Overcast,100,2012-12-28 12:53:00
7:26 AM,30.2,28.4,93,29.96,7.0,Calm,Calm,-,N/A,,Overcast,0,2012-12-28 13:26:00
7:53 AM,30.9,28.0,89,29.97,5.0,East,5.8,-,N/A,,Overcast,90,2012-12-28 13:53:00
8:53 AM,32.0,28.0,85,30.00,5.0,Calm,Calm,-,N/A,,Overcast,0,2012-12-28 14:53:00
9:04 AM,32.0,28.4,87,29.97,5.0,Calm,Calm,-,N/A,,Overcast,0,2012-12-28 15:04:00
9:53 AM,33.1,28.0,82,29.98,6.0,NE,3.5,-,N/A,,Haze,50,2012-12-28 15:53:00
10:53 AM,33.1,28.9,85,29.98,6.0,East,3.5,-,N/A,,Overcast,80,2012-12-28 16:53:00
11:53 AM,34.0,30.0,85,29.94,6.0,Calm,Calm,-,0.00,Rain,Light Rain,0,2012-12-28 17:53:00
12:39 PM,33.8,30.2,87,29.88,5.0,Calm,Calm,-,0.00,Rain,Light Rain,0,2012-12-28 18:39:00
12:53 PM,34.0,30.9,89,29.90,5.0,Calm,Calm,-,0.00,Rain,Light Rain,0,2012-12-28 18:53:00
1:44 PM,35.6,30.2,81,29.86,5.0,Calm,Calm,-,0.01,,Overcast,0,2012-12-28 19:44:00
1:53 PM,35.1,30.9,85,29.88,5.0,Calm,Calm,-,0.01,,Overcast,0,2012-12-28 19:53:00
2:17 PM,33.8,30.2,87,29.86,4.0,Variable,3.5,-,0.00,Rain,Light Rain,0,2012-12-28 20:17:00
2:39 PM,33.8,32.0,93,29.86,2.5,NW,3.5,-,0.00,Snow,Light Snow,320,2012-12-28 20:39:00
2:50 PM,33.8,30.2,87,29.87,1.2,NW,4.6,-,0.00,Snow,Light Snow,320,2012-12-28 20:50:00
2:53 PM,33.1,30.9,92,29.89,1.2,Variable,3.5,-,0.00,Snow,Light Snow,0,2012-12-28 20:53:00
3:00 PM,33.8,30.2,87,29.87,1.0,NNW,4.6,-,0.01,Snow,Light Snow,330,2012-12-28 21:00:00
3:14 PM,32.0,30.2,93,29.87,0.8,NW,5.8,-,0.01,Snow,Light Snow,320,2012-12-28 21:14:00
3:40 PM,32.0,30.2,93,29.87,1.0,NNW,3.5,-,0.02,Snow,Light Snow,340,2012-12-28 21:40:00
3:53 PM,32.0,30.9,96,29.90,1.8,NNW,3.5,-,0.02,,Overcast,330,2012-12-28 21:53:00
4:03 PM,33.8,32.0,93,29.88,2.0,NNW,4.6,-,0.00,Snow,Light Snow,330,2012-12-28 22:03:00
4:32 PM,33.8,32.0,93,29.88,2.5,NW,4.6,-,0.00,,Overcast,320,2012-12-28 22:32:00
4:53 PM,34.0,32.0,92,29.90,2.5,NW,5.8,-,0.00,Rain,Light Rain,320,2012-12-28 22:53:00
5:01 PM,33.8,32.0,93,29.88,4.0,NNW,4.6,-,0.00,Rain,Light Rain,330,2012-12-28 23:01:00
5:15 PM,33.8,32.0,93,29.88,5.0,NNW,5.8,-,0.00,,Overcast,330,2012-12-28 23:15:00
5:53 PM,33.1,32.0,96,29.91,4.0,Calm,Calm,-,0.00,,Overcast,0,2012-12-28 23:53:00
6:16 PM,33.8,32.0,93,29.90,4.0,NNW,3.5,-,N/A,,Overcast,330,2012-12-29 00:16:00
6:51 PM,33.8,32.0,93,29.91,4.0,NW,5.8,-,N/A,,Overcast,320,2012-12-29 00:51:00
6:53 PM,33.1,32.0,96,29.93,4.0,Variable,4.6,-,0.00,Rain,Light Rain,0,2012-12-29 00:53:00
7:26 PM,32.0,30.2,93,29.92,2.5,NNW,5.8,-,0.00,Snow,Light Snow,330,2012-12-29 01:26:00
7:34 PM,32.0,30.2,93,29.92,3.0,NW,6.9,-,0.00,,Overcast,320,2012-12-29 01:34:00
7:53 PM,32.0,30.9,96,29.95,4.0,NW,6.9,-,0.00,,Overcast,320,2012-12-29 01:53:00
8:03 PM,32.0,30.2,93,29.93,4.0,NNW,5.8,-,N/A,,Overcast,330,2012-12-29 02:03:00
8:43 PM,32.0,32.0,100,29.94,5.0,NW,4.6,-,N/A,,Overcast,320,2012-12-29 02:43:00
8:53 PM,32.0,32.0,100,29.96,5.0,NNW,4.6,-,N/A,,Overcast,330,2012-12-29 02:53:00
9:53 PM,32.0,28.9,88,29.98,5.0,Variable,6.9,-,N/A,,Overcast,0,2012-12-29 03:53:00
10:22 PM,32.0,28.4,87,29.97,6.0,NW,5.8,-,N/A,,Overcast,310,2012-12-29 04:22:00
10:53 PM,32.0,27.0,82,29.99,6.0,NW,6.9,-,N/A,,Haze,320,2012-12-29 04:53:00
11:53 PM,30.9,23.0,72,30.01,7.0,WNW,8.1,19.6,N/A,,Overcast,300,2012-12-29 05:53:00